Temperature
14 15 15 16 16 17 18 20 23 24 25 26 26 26 26 24 23 20 20 19 19 20 19 18 17 17 17 16 16 16 16 16 16 16 16 16 16 15 15 15 15 15 16 15 15 15 15 15 15
14 14 15 16 16 16 18 21 23 24 25 25 25 25 25 23 21 20 20 19 19 20 19 18 17 17 17 16 16 16 16 16 16 16 16 16 16 16 15 15 15 15 15 15 15 15 15 15 15
13 14 15 15 16 17 19 21 22 24 24 24 24 24 24 22 21 20 19 18 18 19 19 18 17 17 16 16 16 16 16 16 16 16 16 16 16 16 15 15 16 15 16 16 16 16 16 16 15
13 14 15 15 16 18 20 22 23 23 23 24 24 24 21 20 20 19 19 18 17 18 18 18 17 16 16 16 16 16 16 16 16 16 16 16 16 16 16 16 16 16 16 16 16 16 16 16 15
12 13 14 15 17 19 21 22 23 22 22 23 24 23 20 19 19 19 18 18 17 17 18 17 17 16 16 16 16 16 16 16 16 16 16 16 16 16 16 16 16 16 16 16 16 16 16 16 15
12 13 13 14 17 19 21 22 22 22 22 23 23 22 18 18 18 18 18 18 17 17 17 17 16 16 16 16 16 16 16 16 16 16 16 16 16 16 16 16 16 16 16 16 16 16 16 16 16
11 12 13 15 17 19 21 21 21 21 22 23 23 21 18 17 18 18 18 18 17 17 17 17 16 16 16 16 16 16 16 16 16 16 16 16 16 16 16 16 16 16 16 16 16 16 16 16 16
11 12 13 15 17 19 21 21 21 21 21 22 22 20 18 17 17 17 17 17 17 16 16 16 16 16 16 16 15 16 16 16 16 15 16 16 16 16 16 16 16 16 16 16 16 16 16 16 16
11 11 13 15 17 18 20 20 20 20 20 20 20 19 18 17 17 17 17 17 17 16 16 16 16 16 16 16 15 15 16 15 15 15 16 16 16 16 16 16 16 16 16 16 16 16 16 16 16
11 11 13 16 17 18 19 19 20 20 20 20 19 18 17 17 16 17 17 17 17 16 16 16 16 16 16 16 16 15 15 15 15 16 15 16 15 15 16 16 16 16 16 16 16 16 16 16 16
11 12 14 15 16 16 17 17 18 19 18 19 18 17 17 16 16 16 17 17 17 16 16 16 16 16 15 16 16 15 15 15 15 15 15 15 15 15 15 15 16 16 16 16 16 16 16 15 15
12 13 14 15 14 14 15 16 17 18 19 19 19 18 17 16 16 16 16 16 16 16 16 16 16 16 16 16 15 15 15 15 15 15 15 15 15 15 15 15 16 16 16 16 16 16 15 15 14
12 13 13 14 13 14 15 15 16 18 18 18 18 17 17 17 17 17 17 17 16 16 16 16 16 16 16 16 15 15 15 15 15 15 15 15 15 15 15 15 15 15 15 15 15 15 14 14 14
12 12 13 13 13 13 14 15 16 16 18 17 17 17 17 17 17 17 17 16 16 16 16 16 16 16 16 16 15 15 15 15 15 15 15 15 15 14 14 14 15 15 14 14 15 14 14 14 14
11 11 12 12 13 13 14 14 15 16 17 17 17 17 17 17 17 17 17 17 16 16 16 16 16 16 16 16 15 15 15 15 15 15 15 14 14 14 14 14 14 14 14 14 14 14 14 14 14
11 10 10 12 13 13 13 12 15 16 17 17 17 17 17 17 17 17 17 17 16 16 16 16 16 16 16 16 16 15 15 15 15 15 15 14 14 14 14 14 14 14 14 14 14 14 14 14 14
9 9 10 12 13 13 13 13 15 16 16 17 17 17 17 17 17 17 17 17 16 16 16 16 16 16 16 16 15 15 15 15 15 15 15 15 14 14 14 14 14 14 14 14 14 14 14 14 14
9 9 10 11 13 13 12 13 15 16 16 17 17 17 17 17 17 17 17 17 17 16 16 16 16 16 16 15 15 15 15 15 15 15 15 15 14 14 14 14 14 14 14 14 14 14 14 13 13
9 9 10 12 13 12 12 13 14 15 16 16 17 17 17 17 17 17 17 17 17 16 16 16 16 16 16 15 15 15 15 15 15 15 14 14 14 14 14 14 14 14 14 14 14 13 13 13 13
9 9 10 11 12 12 12 13 14 15 15 16 17 17 17 17 17 17 17 17 17 16 16 16 16 16 16 15 15 15 15 15 15 15 14 14 14 14 14 14 14 14 14 14 13 13 13 13 13
9 8 9 10 11 11 11 11 13 14 15 16 16 17 17 17 17 17 17 17 16 16 16 16 16 16 15 15 15 15 15 15 14 14 15 14 14 14 14 14 14 14 14 13 13 13 13 13 13
8 9 10 10 9 9 10 10 12 13 14 15 16 16 17 17 17 17 17 16 16 16 16 16 16 16 15 15 15 15 15 15 15 15 15 15 14 14 14 14 14 14 14 13 13 13 13 12 12
9 10 10 10 9 9 10 10 11 13 13 14 15 16 16 17 17 17 16 16 16 16 16 16 16 16 15 15 15 15 15 15 15 15 15 14 14 14 14 14 14 14 13 13 13 13 13 12 12
9 9 9 9 8 8 9 10 11 13 14 15 15 16 16 16 16 16 16 16 15 15 15 15 15 15 15 15 15 15 14 14 14 14 14 14 14 14 14 14 14 13 13 13 13 13 12 12 12
8 7 7 7 7 8 11 11 11 14 15 15 15 16 16 16 16 15 15 15 15 15 15 15 15 15 15 15 15 14 14 14 14 14 14 14 14 13 13 13 13 13 13 13 12 12 12 12 12
7 7 7 7 8 9 11 11 12 14 14 15 15 15 15 15 15 15 15 14 14 14 14 14 14 14 14 14 14 14 14 14 14 13 13 13 13 13 13 13 12 12 12 12 12 12 11 11 11
7 7 8 7 8 8 10 12 12 13 13 13 14 14 14 14 14 14 14 14 13 13 14 14 14 14 14 14 14 14 14 13 13 13 13 13 13 12 12 12 12 12 12 11 11 11 11 11 10
8 8 7 7 7 8 10 11 11 12 12 13 13 13 13 13 13 13 13 13 12 12 13 13 13 13 13 13 13 13 13 13 13 13 13 12 12 12 12 12 11 11 11 10 10 10 10 10 10
7 7 8 8 8 8 8 10 12 12 12 12 12 13 13 12 12 12 11 11 11 12 12 12 12 12 13 12 12 12 12 12 12 12 12 11 11 11 11 10 10 10 10 10 10 9 9 9 9
8 8 8 7 7 8 8 9 12 11 11 12 12 12 12 11 11 11 11 10 10 11 11 11 11 11 11 11 11 11 11 11 11 11 11 11 10 10 10 10 9 9 9 9 9 9 9 8 8
Wind_Speed
11 12 8 3 4 6 13 13 12 10 7 2 3 4 4 7 5 9 7 15 21 21 23 23 23 22 22 21 19 18 17 16 15 15 15 15 15 15 15 16 17 18 18 18 19 18 19 19 18
10 9 6 4 6 10 13 15 12 7 2 4 4 4 3 7 8 8 9 18 21 21 22 22 23 23 22 21 19 18 17 16 15 15 14 15 15 16 16 17 18 19 18 19 18 18 18 17 16
10 9 4 5 9 14 13 13 10 4 3 3 2 1 2 5 8 6 12 19 19 18 21 23 24 23 22 21 19 18 17 16 15 15 15 15 16 16 16 17 18 18 18 18 18 17 17 16 15
5 4 4 8 15 17 14 10 8 6 4 3 4 4 4 6 4 8 15 17 19 17 21 24 23 23 22 20 19 18 17 16 15 15 15 15 16 16 16 17 17 17 17 17 17 16 15 15 13
5 4 8 11 18 17 13 7 3 6 6 6 6 4 5 4 7 11 12 15 17 17 21 23 23 23 21 20 19 18 16 15 15 15 15 15 16 16 16 16 16 16 16 16 16 15 14 13 12
5 5 9 15 18 17 12 6 2 4 7 8 7 4 5 4 8 9 10 13 15 17 19 22 22 22 21 20 19 17 16 15 15 15 15 15 16 16 15 15 15 15 14 14 14 14 13 12 10
6 6 11 16 17 16 12 8 6 6 5 5 4 4 7 6 7 8 9 11 15 16 17 18 19 20 20 19 18 17 16 16 15 15 16 16 16 15 15 13 13 13 13 13 13 12 12 10 9
5 4 12 16 16 14 10 8 7 6 3 1 1 3 8 8 8 8 9 10 13 14 15 15 17 18 17 17 18 18 17 16 15 16 17 17 16 15 14 13 13 12 12 12 11 11 10 8 7
4 6 12 16 13 9 8 8 7 3 1 2 5 8 11 13 11 9 8 9 11 13 13 13 14 16 17 17 17 17 17 16 16 16 18 17 14 14 12 13 12 11 11 10 10 9 8 7 5
5 8 13 12 10 7 6 5 5 5 5 3 6 11 13 12 11 10 10 11 11 12 13 12 12 12 15 15 16 15 14 15 14 14 15 14 13 13 14 15 12 11 10 9 8 8 7 7 6
6 9 11 11 7 3 2 3 5 6 6 7 9 12 11 11 11 10 10 10 11 11 11 11 11 11 11 10 13 12 12 13 13 16 16 12 12 14 14 12 11 10 10 9 8 8 9 9 8
8 11 10 9 3 2 3 3 7 7 5 5 8 11 10 11 11 11 10 10 10 10 11 11 10 9 10 11 9 9 9 9 9 13 14 10 9 9 10 10 11 12 10 10 10 10 11 8 6
11 9 9 5 2 4 6 6 6 6 5 3 7 9 8 8 9 9 9 9 9 9 10 10 10 9 9 8 7 7 7 7 9 11 11 10 7 5 7 8 10 10 10 10 8 8 6 5 6
5 6 6 4 4 5 6 8 6 6 3 4 7 7 8 7 8 7 8 9 9 9 9 8 9 9 8 7 6 6 8 9 10 10 10 11 9 7 6 5 6 6 6 8 7 6 3 3 3
3 3 4 6 6 4 4 8 10 8 5 6 7 8 8 6 6 6 7 8 9 9 10 9 9 8 8 7 6 6 8 9 8 9 10 10 9 8 6 3 4 6 6 6 5 4 2 2 1
2 3 5 7 9 6 6 10 12 9 8 7 7 8 8 8 8 7 6 6 7 8 9 9 9 9 8 7 6 5 6 8 8 10 10 10 10 10 7 3 4 7 7 5 3 2 2 2 2
4 6 8 7 11 8 9 8 9 9 10 9 8 8 8 8 8 7 7 6 7 8 9 9 9 9 8 7 6 5 6 6 8 9 9 10 10 11 9 5 5 7 5 3 3 2 2 3 3
5 6 8 8 9 11 11 8 6 7 10 10 9 8 8 9 9 8 7 7 6 6 8 9 9 8 8 6 5 4 4 4 6 7 8 9 9 10 9 6 6 6 3 3 3 4 3 3 3
2 3 6 6 4 8 11 11 9 8 9 9 9 10 9 9 8 8 7 7 6 5 6 8 8 8 7 6 6 5 5 4 4 4 6 8 8 9 8 4 4 4 4 4 5 4 4 4 2
3 4 5 4 4 4 7 10 9 10 10 9 9 9 10 9 7 7 7 8 7 7 6 6 8 8 8 6 6 4 4 4 4 4 5 7 7 8 7 5 3 3 4 5 5 4 3 3 3
4 4 4 3 2 4 5 7 11 11 11 10 9 9 9 10 9 8 9 8 7 7 7 6 7 8 8 7 5 4 4 3 3 4 4 5 7 7 6 6 4 3 4 4 5 5 5 4 4
3 3 4 4 3 3 6 4 9 12 13 13 12 10 9 9 9 8 9 9 8 7 6 6 6 7 7 8 7 7 6 5 5 5 5 5 6 6 6 6 5 4 4 4 4 4 3 4 4
1 1 2 4 3 3 5 5 6 11 13 15 14 13 11 10 9 8 8 9 8 7 6 5 6 6 7 8 8 7 6 5 4 4 6 5 4 5 5 4 3 3 3 4 4 3 4 4 5
1 0 1 1 1 3 8 7 5 9 14 14 13 12 10 9 8 7 7 8 7 7 6 5 6 6 6 7 7 7 7 6 5 5 5 4 3 3 4 4 3 3 2 3 3 3 4 4 5
2 2 2 2 3 5 8 7 6 6 6 7 8 9 8 7 7 6 7 8 8 8 7 6 7 6 6 6 6 6 6 6 6 5 5 4 3 3 3 3 3 2 2 2 2 2 3 3 4
4 2 2 2 3 2 5 6 4 2 2 2 2 3 4 5 6 6 7 7 7 8 7 6 7 6 6 6 5 5 5 4 3 4 4 3 3 3 3 3 2 2 1 1 1 2 3 2 3
2 3 3 3 3 2 5 5 4 2 3 3 2 3 3 4 5 5 5 6 6 7 7 7 7 6 5 5 5 4 5 4 4 4 3 3 3 3 3 2 2 2 1 1 2 2 3 3 3
2 2 2 2 2 2 5 6 4 6 6 6 5 4 3 4 4 5 5 5 4 5 5 6 6 6 5 5 5 4 5 5 5 5 5 4 4 3 2 2 2 1 1 1 1 2 2 2 2
4 3 3 3 3 2 2 1 4 3 3 4 3 3 3 4 4 4 4 5 5 5 4 5 5 6 5 5 5 5 5 5 5 5 5 4 3 3 2 2 2 1 1 1 1 1 1 2 1
3 4 3 2 4 3 2 2 4 5 4 4 4 4 3 4 4 4 5 5 5 5 5 5 6 6 5 5 6 5 5 6 5 5 4 4 4 3 3 2 2 1 1 1 1 1 1 1 1
Wind_Direction
271 262 250 236 227 223 232 237 238 223 216 208 24 351 28 46 68 113 142 127 126 133 140 141 138 137 135 132 130 128 125 123 119 114 109 105 102 98 97 96 96 96 95 95 93 93 91 90 88
270 259 242 223 219 218 222 228 234 224 168 75 53 352 31 74 83 110 129 125 130 134 141 143 139 138 136 134 132 130 128 126 122 117 112 107 104 99 97 96 96 95 94 94 94 93 92 90 89
262 253 225 214 222 221 218 212 218 206 100 101 124 291 14 69 95 112 122 129 131 136 142 141 141 139 137 136 134 133 131 128 124 119 116 111 107 102 100 97 97 96 95 95 95 94 93 90 88
242 220 230 223 223 225 236 216 189 167 133 160 175 140 86 41 64 113 126 133 134 137 137 141 142 140 139 138 137 135 134 131 126 122 118 113 110 107 104 102 101 100 100 99 97 96 94 90 87
231 214 214 220 223 223 234 249 163 156 162 191 213 158 96 53 84 115 134 138 137 136 135 144 142 142 142 141 139 138 136 134 131 127 123 118 114 112 109 108 106 105 104 102 100 98 94 90 86
210 210 208 214 218 219 218 229 206 195 186 193 204 171 104 107 111 134 141 138 135 133 137 145 143 143 143 143 142 140 139 138 135 131 126 121 119 117 115 113 112 109 108 105 103 101 97 92 86
213 207 213 213 216 216 211 198 198 213 202 192 204 149 121 124 124 138 138 138 132 133 138 144 146 145 145 145 144 143 141 139 135 132 127 123 122 121 119 118 116 115 113 110 107 105 101 97 90
227 224 221 220 216 217 201 196 201 213 214 237 337 134 135 135 134 135 137 134 132 136 142 149 151 151 149 147 147 145 143 140 134 132 131 128 127 126 126 121 118 118 117 116 114 111 109 106 104
232 225 217 218 218 216 198 200 197 184 161 45 51 65 119 133 135 135 137 132 138 143 148 153 155 156 154 152 151 147 145 142 136 136 139 140 141 141 139 128 125 123 123 124 123 124 128 130 137
211 220 224 229 231 227 219 202 186 164 173 154 100 97 120 133 140 149 154 150 151 151 154 156 158 157 155 153 154 155 153 153 155 152 158 169 162 148 136 134 135 136 136 136 141 151 164 174 185
213 230 232 244 269 332 263 215 208 179 187 175 152 136 139 145 154 161 165 162 159 156 156 159 160 156 151 149 160 161 161 168 172 163 178 178 141 130 134 142 146 152 156 160 167 184 207 213 192
225 240 240 252 318 333 278 237 230 198 197 171 148 138 150 158 165 168 172 169 166 163 160 160 160 155 153 155 156 155 156 167 163 164 176 161 144 147 156 162 171 175 185 180 182 208 218 210 187
228 236 238 245 282 276 272 261 253 241 199 163 128 137 160 169 170 171 172 166 165 170 166 161 160 160 157 153 152 157 155 162 155 158 170 157 148 161 162 166 169 182 185 173 197 222 206 194 211
224 241 248 237 240 251 245 262 250 252 215 164 155 167 178 188 174 169 167 166 169 173 173 166 162 161 159 154 156 158 159 161 153 153 170 164 162 166 159 160 165 187 175 176 202 227 191 196 222
241 239 239 221 217 239 234 247 245 244 227 194 187 187 187 190 185 183 176 171 173 172 170 171 170 165 163 160 162 156 157 158 152 158 174 169 167 162 158 164 166 185 185 185 204 227 197 214 204
201 210 216 213 203 220 217 229 232 229 230 214 205 199 192 196 196 195 188 177 172 167 169 171 173 172 170 161 157 156 161 155 154 162 174 174 173 168 165 174 179 188 188 190 191 199 194 222 216
197 206 211 207 198 201 211 235 225 215 225 221 211 206 198 198 199 196 186 180 170 170 170 169 167 169 169 163 160 159 159 156 160 163 169 177 178 173 171 183 193 197 188 185 191 199 204 222 228
186 201 210 211 191 200 215 229 230 220 221 221 217 212 211 204 202 191 179 171 169 172 169 168 169 169 165 158 154 151 153 155 158 161 165 174 180 178 176 181 196 196 176 186 193 202 220 230 234
244 228 218 216 192 205 219 228 224 227 234 229 218 211 213 213 201 184 174 160 161 170 171 167 167 169 161 161 163 164 171 165 153 153 164 172 176 176 174 175 189 189 182 191 200 197 214 224 229
236 239 238 229 187 213 234 235 231 228 229 234 227 215 211 210 206 186 169 161 166 172 173 168 164 163 164 166 166 162 159 165 166 158 170 178 178 177 179 176 181 183 189 198 206 201 201 212 198
228 244 230 223 201 231 245 245 228 230 230 234 233 224 217 207 202 189 176 165 163 171 172 174 168 165 164 161 152 147 143 146 165 173 179 184 185 183 181 186 183 185 188 200 206 201 195 213 220
221 235 234 220 199 225 213 235 227 220 222 225 223 221 221 214 203 194 180 167 165 169 169 170 166 164 161 159 161 165 173 179 186 179 179 178 181 181 184 189 193 194 196 206 214 209 206 205 222
208 275 240 219 224 254 219 237 244 215 216 216 214 212 215 209 200 188 179 166 160 157 157 161 160 161 160 164 169 175 182 182 172 166 171 176 174 173 175 185 192 202 203 210 213 214 216 212 217
158 65 329 271 232 241 215 218 249 214 213 208 205 204 205 195 191 184 167 153 151 146 147 155 159 162 158 163 170 178 181 175 170 174 171 171 168 168 167 183 190 199 202 204 210 224 227 226 229
172 158 168 184 204 232 205 213 243 231 210 198 193 192 192 179 174 172 161 156 154 153 157 163 166 166 163 163 170 176 179 177 182 177 173 169 170 173 182 181 190 198 204 208 206 217 238 235 233
187 212 234 212 199 216 197 221 235 212 126 119 137 162 169 162 162 165 163 156 154 157 162 165 165 164 164 163 163 158 153 156 157 148 148 157 158 160 157 169 177 175 177 206 210 219 231 236 235
165 221 259 297 272 218 217 220 205 176 145 142 155 167 169 156 152 152 147 147 153 159 166 168 163 159 159 154 144 143 138 136 133 124 120 119 108 110 118 138 146 151 169 194 199 213 226 225 224
238 271 252 249 266 237 214 223 218 183 181 174 169 168 163 151 143 141 143 145 144 147 150 154 155 151 140 133 134 135 127 124 123 119 113 107 106 109 125 134 139 146 174 191 200 210 214 203 212
196 229 248 262 273 276 223 244 11 95 111 125 138 132 126 126 137 139 137 135 130 129 133 135 135 130 126 124 117 114 110 107 106 107 110 111 109 109 108 107 106 119 166 186 190 203 187 187 182
236 235 237 262 286 274 267 276 3 47 59 80 86 95 97 111 118 128 135 134 135 138 138 138 136 130 127 123 116 114 110 107 106 106 103 97 95 92 91 93 109 120 95 68 127 137 123 149 164
Height
1502 1504 1507 1510 1512 1510 1505 1494 1484 1481 1480 1481 1483 1485 1487 1492 1497 1510 1509 1510 1511 1514 1519 1523 1527 1531 1534 1537 1540 1542 1543 1545 1546 1547 1548 1549 1550 1551 1552 1554 1555 1556 1558 1559 1560 1561 1562 1563 1564
1500 1503 1507 1507 1508 1509 1499 1488 1483 1480 1480 1482 1485 1487 1489 1495 1500 1505 1508 1510 1511 1515 1519 1523 1528 1532 1535 1538 1541 1543 1545 1546 1548 1549 1550 1551 1552 1553 1555 1556 1557 1558 1560 1561 1562 1563 1564 1565 1566
1498 1501 1504 1502 1501 1499 1491 1483 1480 1479 1481 1485 1488 1491 1494 1499 1503 1505 1508 1510 1512 1516 1520 1524 1528 1532 1536 1539 1541 1544 1546 1547 1549 1550 1552 1553 1554 1555 1556 1558 1559 1560 1562 1563 1564 1565 1566 1568 1569
1497 1499 1500 1499 1495 1487 1481 1478 1477 1480 1483 1486 1489 1493 1497 1501 1503 1506 1509 1512 1514 1517 1521 1525 1529 1533 1536 1539 1542 1545 1547 1548 1550 1552 1553 1554 1556 1557 1558 1560 1561 1562 1564 1565 1566 1567 1569 1570 1571
1495 1496 1496 1494 1489 1482 1479 1476 1477 1480 1484 1488 1490 1493 1498 1502 1503 1506 1510 1513 1515 1518 1521 1526 1530 1534 1537 1540 1543 1545 1547 1549 1551 1553 1555 1556 1557 1558 1560 1561 1563 1564 1565 1567 1568 1569 1571 1572 1573
1493 1491 1493 1491 1484 1478 1477 1478 1480 1481 1484 1487 1489 1493 1499 1501 1504 1507 1511 1515 1517 1519 1522 1526 1530 1534 1538 1541 1543 1546 1548 1550 1552 1554 1556 1557 1558 1560 1561 1563 1564 1566 1567 1568 1570 1571 1572 1574 1575
1489 1488 1487 1484 1481 1478 1476 1478 1481 1483 1484 1486 1488 1492 1498 1501 1504 1507 1512 1516 1518 1520 1523 1527 1531 1535 1538 1541 1544 1546 1549 1551 1553 1555 1556 1558 1560 1561 1563 1564 1566 1567 1569 1570 1571 1573 1574 1575 1576
1486 1486 1484 1481 1479 1477 1474 1478 1480 1483 1484 1486 1488 1491 1496 1500 1503 1507 1512 1516 1519 1521 1524 1527 1531 1534 1538 1541 1544 1547 1549 1552 1554 1555 1557 1559 1561 1562 1564 1566 1567 1569 1570 1571 1573 1574 1575 1577 1578
1485 1487 1482 1479 1476 1475 1474 1477 1480 1483 1485 1487 1489 1491 1494 1498 1503 1507 1511 1516 1519 1522 1524 1528 1531 1534 1538 1541 1544 1547 1550 1552 1554 1556 1558 1560 1561 1563 1565 1566 1568 1570 1571 1573 1574 1575 1576 1577 1578
1483 1483 1479 1475 1474 1476 1476 1478 1480 1483 1485 1489 1491 1494 1496 1499 1503 1506 1510 1513 1517 1521 1525 1528 1531 1534 1538 1540 1544 1547 1549 1552 1554 1556 1558 1560 1562 1563 1565 1567 1568 1570 1572 1573 1574 1576 1577 1578 1579
1480 1478 1477 1477 1477 1479 1479 1480 1481 1483 1486 1488 1491 1494 1497 1500 1503 1506 1510 1513 1517 1520 1524 1528 1531 1534 1537 1540 1543 1546 1549 1551 1554 1556 1558 1560 1562 1564 1565 1567 1568 1570 1572 1573 1574 1576 1577 1577 1579
1478 1477 1477 1478 1479 1482 1483 1482 1483 1483 1486 1487 1490 1493 1496 1500 1503 1506 1509 1513 1516 1520 1524 1527 1531 1534 1536 1539 1543 1546 1548 1551 1554 1556 1559 1561 1562 1564 1565 1567 1568 1570 1571 1573 1574 1575 1576 1578 1579
1477 1477 1478 1480 1481 1483 1484 1484 1484 1483 1485 1487 1489 1493 1496 1499 1502 1506 1509 1512 1516 1519 1522 1526 1529 1533 1536 1539 1542 1545 1548 1551 1554 1556 1558 1560 1562 1563 1565 1566 1568 1569 1571 1572 1574 1575 1576 1577 1578
1476 1478 1479 1480 1482 1484 1484 1484 1485 1484 1485 1487 1490 1493 1496 1499 1502 1505 1508 1511 1514 1517 1521 1525 1528 1531 1535 1537 1540 1544 1547 1550 1552 1555 1557 1559 1561 1563 1564 1566 1567 1569 1570 1571 1573 1574 1575 1576 1577
1477 1480 1480 1481 1482 1484 1485 1486 1483 1484 1485 1487 1490 1493 1495 1498 1501 1504 1506 1510 1513 1516 1519 1523 1526 1530 1533 1536 1539 1543 1545 1548 1551 1553 1555 1558 1560 1561 1563 1565 1566 1568 1569 1570 1571 1573 1573 1574 1575
1478 1482 1484 1480 1481 1483 1488 1488 1482 1483 1485 1486 1489 1491 1494 1497 1500 1503 1505 1508 1511 1514 1517 1520 1524 1527 1531 1534 1537 1541 1544 1546 1549 1551 1553 1555 1557 1559 1561 1562 1564 1566 1567 1568 1569 1570 1571 1572 1572
1482 1483 1482 1480 1479 1481 1485 1484 1480 1481 1483 1485 1487 1490 1492 1495 1498 1501 1504 1507 1510 1512 1515 1518 1521 1525 1528 1532 1535 1538 1541 1544 1546 1549 1551 1553 1555 1557 1558 1560 1562 1563 1565 1566 1567 1568 1568 1569 1569
1482 1482 1480 1479 1477 1480 1482 1481 1479 1480 1482 1483 1484 1487 1490 1493 1496 1499 1501 1504 1507 1510 1513 1516 1519 1522 1525 1529 1532 1536 1538 1541 1544 1546 1548 1550 1552 1554 1556 1557 1559 1560 1562 1563 1564 1565 1565 1566 1566
1480 1480 1480 1477 1476 1479 1480 1480 1479 1479 1480 1481 1482 1485 1488 1490 1493 1496 1499 1502 1505 1508 1511 1513 1516 1519 1522 1526 1529 1532 1535 1538 1540 1543 1545 1548 1549 1551 1553 1554 1556 1557 1558 1559 1561 1561 1562 1562 1563
1481 1483 1482 1479 1477 1479 1480 1479 1477 1477 1477 1478 1479 1481 1484 1487 1490 1493 1496 1498 1502 1505 1508 1511 1513 1516 1519 1523 1526 1529 1532 1535 1537 1540 1542 1544 1546 1548 1549 1551 1552 1553 1555 1556 1557 1558 1558 1558 1559
1481 1484 1483 1482 1480 1480 1482 1482 1477 1474 1475 1476 1477 1478 1481 1483 1486 1489 1492 1495 1498 1502 1505 1508 1510 1513 1516 1519 1523 1526 1529 1531 1534 1536 1538 1541 1543 1544 1546 1547 1548 1549 1551 1552 1553 1554 1554 1554 1555
1483 1481 1481 1482 1486 1487 1484 1488 1475 1471 1471 1471 1472 1474 1477 1480 1483 1486 1489 1491 1494 1498 1502 1505 1508 1511 1514 1516 1519 1521 1524 1527 1529 1532 1534 1537 1538 1540 1541 1543 1544 1545 1546 1547 1548 1549 1550 1550 1550
1481 1480 1481 1482 1485 1488 1485 1487 1475 1466 1467 1466 1467 1469 1473 1476 1479 1482 1485 1488 1491 1495 1498 1501 1504 1507 1510 1513 1516 1518 1521 1524 1526 1528 1530 1532 1534 1535 1537 1539 1540 1540 1541 1542 1543 1544 1545 1545 1545
1482 1483 1483 1484 1488 1493 1482 1483 1475 1463 1460 1460 1462 1465 1468 1472 1476 1479 1481 1484 1488 1491 1494 1498 1501 1504 1507 1510 1512 1515 1517 1520 1522 1524 1526 1528 1529 1531 1532 1534 1535 1535 1536 1537 1537 1538 1539 1539 1539
1484 1489 1492 1493 1494 1488 1472 1474 1469 1455 1452 1454 1457 1460 1464 1468 1472 1475 1478 1481 1484 1487 1490 1494 1497 1500 1503 1506 1509 1511 1514 1516 1518 1520 1522 1523 1525 1526 1527 1529 1529 1530 1531 1531 1532 1532 1532 1532 1533
1485 1488 1492 1491 1488 1480 1470 1471 1462 1452 1451 1452 1455 1458 1461 1465 1468 1471 1474 1477 1480 1483 1487 1490 1493 1496 1499 1502 1505 1507 1510 1512 1514 1516 1518 1519 1520 1521 1522 1523 1524 1525 1526 1526 1526 1526 1526 1526 1526
1485 1488 1486 1488 1480 1481 1473 1461 1457 1451 1452 1453 1455 1457 1460 1462 1465 1469 1472 1474 1477 1480 1483 1486 1489 1492 1495 1498 1500 1503 1505 1507 1510 1512 1513 1515 1516 1517 1518 1518 1519 1520 1520 1520 1520 1520 1520 1521 1520
1486 1484 1486 1488 1485 1480 1470 1463 1460 1455 1454 1454 1456 1458 1459 1462 1464 1467 1469 1472 1474 1477 1479 1482 1485 1488 1490 1493 1495 1498 1500 1503 1505 1507 1508 1509 1511 1512 1513 1513 1514 1515 1515 1515 1515 1515 1515 1515 1515
1485 1485 1483 1483 1480 1481 1476 1470 1455 1453 1453 1454 1456 1458 1460 1462 1464 1466 1468 1470 1472 1474 1476 1479 1481 1484 1486 1489 1491 1494 1496 1498 1500 1502 1503 1505 1506 1507 1508 1509 1509 1510 1510 1510 1510 1510 1510 1510 1510
1479 1479 1481 1485 1482 1476 1476 1473 1456 1455 1455 1456 1457 1459 1460 1462 1463 1465 1467 1468 1470 1472 1474 1476 1478 1480 1483 1485 1488 1490 1492 1494 1496 1498 1499 1500 1501 1502 1503 1504 1504 1505 1505 1505 1505 1505 1505 1505 1505